Location: *
(49.9414°N, 2.3633°E)
Time: 17:13:30
(UTC+00:00)

Daily predictions for brighter satellites

Satellite Brightness Start Highest point End
(mag) Time Altitude Azimuth Time Altitude Azimuth Time Altitude Azimuth
BREEZE-M DEB (TANK) 4.4 16:03:47 10° W 16:07:51 86° S 16:23:18 10° E
Cosmos 2279 Rocket 4.0 16:15:04 10° N 16:21:23 83° E 16:27:40 10° S
ATLAS 3B R/B 4.5 16:18:45 10° NW 16:24:51 38° WSW 16:31:04 10° S
Cosmos 2251 Rocket 4.0 16:20:01 10° S 16:25:00 44° ESE 16:30:00 10° NE
Meteor 1-5 Rocket 4.1 16:20:53 10° N 16:26:26 69° ENE 16:31:47 10° SSE
SL-16 R/B 4.3 16:21:51 10° N 16:26:42 25° NW 16:31:34 10° WSW
CZ-4B R/B 1.8 16:23:36 10° N 16:27:07 72° WNW 16:30:34 10° SSW
Cosmos 1666 3.8 16:24:10 10° NNE 16:27:08 22° ENE 16:30:07 10° ESE
Okean-O 3.7 16:24:38 10° ESE 16:28:06 23° ENE 16:31:35 10° N
RESURS DK-1 2.4 16:25:01 10° SSW 16:29:09 84° ESE 16:33:18 10° NNE
Envisat 3.9 16:26:49 10° ESE 16:30:59 26° ENE 16:35:08 10° N
USA 267 3.3 16:26:48 10° ESE 16:33:22 84° NNE 16:39:56 10° WNW
H-2A R/B 4.2 16:30:47 10° NNW 16:33:52 21° WNW 16:36:59 10° WSW
CZ-4B R/B 3.4 16:29:45 10° SSE 16:35:06 77° WSW 16:40:35 10° NNW
Cosmos 1992 Rocket 4.0 16:32:52 10° NNW 16:38:08 79° ENE 16:43:22 10° SSE
YAOGAN 1 4.3 16:37:23 10° E 16:39:23 13° NE 16:41:25 10° NNE
NOSS 3-4 (A) 3.9 16:33:39 10° WSW 16:39:38 58° NW 16:46:07 10° NE
NOSS 3-4 (C) 3.9 16:33:45 10° WSW 16:39:45 58° NW 16:46:13 10° NE
Feng Yun 1-1 Rocket 4.3 16:35:23 10° SE 16:40:36 54° ENE 16:45:54 10° N
Cosmos 2322 4.5 16:35:29 10° SW 16:41:01 50° NW 16:46:35 10° NNE
Cosmos 1536 3.1 16:38:02 10° N 16:41:57 46° ENE 16:45:48 10° SSE
Cosmos 2278 Rocket 2.5 16:36:30 10° NNW 16:42:11 77° WSW 16:47:50 10° SSE
Nadezhda 4 Rocket 4.2 16:37:32 10° SSE 16:43:37 52° E 16:49:43 10° NNE
Cosmos 2360 Rocket 3.6 16:40:12 10° WSW 16:45:16 32° NW 16:50:23 10° NNE
Cosmos 1733 Rocket 3.1 16:41:09 10° N 16:45:34 89° E 16:49:58 10° S
Lacrosse 5 rocket 1.4 16:47:46 10° WSW 16:52:05 80° NNW 16:55:35 14° NE
Cosmos 2369 Rocket 3.4 16:48:49 10° N 16:53:09 22° NE 16:57:15 11° E
Cosmos 1980 Rocket 4.5 16:52:16 10° NNW 16:53:33 11° NNW 16:54:50 10° N
AQUARIUS 4.2 16:50:11 10° SSE 16:54:36 58° ENE 16:59:02 10° N
SMAP 3.0 16:50:41 10° SSE 16:55:18 66° ENE 16:59:56 10° N
YAOGAN 6 3.8 16:54:18 10° ESE 16:57:01 21° ENE 16:59:46 10° NNE
SL-4 R/B 1.9 16:54:25 10° W 16:58:08 72° N 17:01:17 16° ENE
Cosmos 921 Rocket 3.4 16:54:41 10° N 16:58:43 38° ENE 17:02:46 10° SE
Cosmos 1743 3.9 16:55:40 10° NNE 16:58:46 22° ENE 17:01:53 10° ESE
SL-16 R/B 3.2 16:55:58 10° SSE 17:00:42 28° ESE 17:04:31 14° NE
IRS-1C Rocket 4.1 16:55:52 10° SSE 17:01:08 82° ENE 17:06:27 10° NNW
Radarsat 4.5 16:58:57 10° SSE 17:04:07 71° ENE 17:09:20 10° N
FALCON 9 DEB 4.1 17:01:11 10° SSW 17:04:26 36° SE 17:06:35 18° E
Aureole 1 Rocket 3.1 17:01:54 10° SSE 17:04:34 29° ESE 17:06:13 19° ENE
Cosmos 1867 3.9 16:59:45 10° NNW 17:05:03 47° NE 17:10:17 10° ESE
Cosmos 2026 Rocket 4.5 16:59:58 10° SSE 17:05:22 35° E 17:10:48 10° NNE
ALOS 4.2 17:02:13 10° SSW 17:06:24 32° W 17:10:37 10° NNW
NOSS 0 Rocket 4.0 17:01:53 10° SSW 17:08:06 87° ESE 17:14:25 10° NNE
CORIOLIS 4.1 17:03:52 10° SSE 17:09:18 76° ENE 17:14:46 10° NNW
Cosmos 2237 Rocket 2.2 17:03:46 10° SSW 17:09:27 76° ESE 17:15:04 10° NNE
Cosmos 1812 3.0 17:09:01 10° SSW 17:12:52 72° W 17:16:45 10° N
Cosmos 2333 Rocket 3.1 17:07:30 10° SW 17:13:04 48° NW 17:18:41 10° NNE
ATLAS 5 CENTAUR R/B 1.5 17:11:20 10° SSW 17:13:22 32° SE 17:13:53 27° E
CZ-4 R/B 2.2 17:10:18 10° ESE 17:13:33 26° ENE 17:16:48 10° N
Cosmos 2322 Rocket 4.4 17:10:45 10° WNW 17:14:10 16° NNW 17:17:36 10° N
SeaSat 1 4.2 17:16:07 14° NE 17:16:32 14° NNE 17:19:02 10° N
ATLAS 2AS CENTAUR R/B 3.9 17:10:21 10° W 17:17:55 42° NNW 17:24:34 13° NE
Cosmos 1782 Rocket 3.7 17:14:33 10° N 17:18:46 46° ENE 17:22:57 10° SSE
Cosmos 2219 Rocket 3.2 17:13:52 10° SW 17:19:14 44° NW 17:24:40 10° NNE
Cosmos 292 Rocket 3.9 17:14:27 10° NNW 17:19:21 79° WSW 17:24:12 10° SSE
Cosmos 1943 Rocket 2.8 17:18:39 10° NNW 17:23:50 35° NE 17:27:53 15° ESE
SL-16 R/B 4.4 17:21:26 10° WNW 17:24:15 14° NNW 17:27:05 10° N
ISS -0.1 17:26:35 10° SW 17:27:07 10° SW 17:27:40 10° SW
STARLINK-67 3.1 17:24:29 10° WNW 17:27:10 43° N 17:27:38 38° NE
Okean 2 Rocket 3.9 17:23:30 10° N 17:27:25 29° ENE 17:31:20 10° SE
Cosmos 1862 Rocket 4.2 17:24:23 10° SSW 17:28:40 57° WNW 17:33:03 10° N
Sich 1 Rocket 3.8 17:25:14 10° N 17:29:30 46° ENE 17:33:44 10° SSE
Cosmos 1703 Rocket 3.6 17:27:40 10° S 17:32:05 62° E 17:36:21 11° NNE
STARLINK-52 3.7 17:29:24 10° SW 17:32:47 47° SSE 17:33:53 33° E
Cosmos 1190 Rocket 4.5 17:28:55 10° S 17:33:41 38° ESE 17:36:02 25° NE
Cosmos 1975 3.4 17:30:44 10° N 17:34:26 34° ENE 17:38:06 10° SE
Cosmos 1627 Rocket 4.4 17:32:27 10° S 17:38:29 65° E 17:44:34 10° NNE
CSL-04 Rocket 3.8 17:33:35 10° SE 17:38:34 45° ENE 17:43:37 10° N
STARLINK-46 3.1 17:36:46 10° W 17:39:20 41° N 17:39:21 41° N
STARLINK-60 3.0 17:37:22 10° WSW 17:40:45 78° SSE 17:41:33 49° E
USA 215 3.3 17:36:17 22° ENE 17:40:50 82° NNW 17:47:23 10° WSW
STARLINK-29 3.4 17:37:26 10° SW 17:40:54 58° SSE 17:41:45 43° E
Cosmos 1980 4.1 17:35:30 10° SW 17:41:07 64° WNW 17:46:04 14° NNE
Lacrosse 5 4.0 17:40:56 10° SE 17:41:13 10° SE 17:41:13 10° SE
Cosmos 2195 Rocket 4.4 17:36:24 10° S 17:42:36 75° E 17:48:55 10° NNE
Cosmos 1441 Rocket 3.3 17:39:41 10° NNW 17:43:31 77° W 17:47:17 10° S
H-2A R/B 4.1 17:41:30 10° S 17:44:59 40° W 17:48:30 10° NNW
Cosmos 2297 3.9 17:42:50 10° NNW 17:48:33 73° WSW 17:54:11 10° SSE
Cosmos 1655 Rocket 4.4 17:43:26 10° SSE 17:49:10 38° E 17:53:06 19° NNE
Cosmos 614 Rocket 3.9 17:44:19 10° S 17:49:19 61° ESE 17:51:50 29° NE
Cosmos 2242 Rocket 4.3 17:46:17 10° SSW 17:50:46 55° WNW 17:55:19 10° N
COBE Rocket 4.3 17:46:41 10° N 17:51:16 60° WNW 17:55:54 10° SSW
Cosmos 1092 Rocket 4.1 17:47:09 10° SSW 17:53:27 80° W 17:59:44 10° N
Exosat Rocket 4.4 17:49:10 10° SW 17:54:02 45° NW 17:58:28 13° NNE
Cosmos 1174 3.9 17:51:25 10° SSW 17:56:16 69° SE 17:57:14 49° ENE
CSL-04 Debris 4.1 17:52:15 10° SSE 17:57:38 64° ENE 18:03:01 10° N
Cosmos 1666 4.5 17:59:26 10° NNW 18:02:48 32° W 18:06:09 10° SSW
Okean-O 3.6 18:00:01 10° S 18:04:18 49° W 18:08:37 10° NNW
COSMOS 2428 4.5 18:01:44 10° W 18:06:25 26° NW 18:10:57 11° NNE
COSMO-SKYMED 1 2.4 18:06:07 38° NNE 18:07:45 79° ESE 18:12:05 10° S
BREEZE-M R/B 2.6 18:03:29 10° W 18:08:21 69° SSW 18:08:35 66° SSE
Envisat 3.8 18:04:45 10° S 18:09:42 53° W 18:14:42 10° NNW
Okean 1-7 3.4 18:06:21 10° SSW 18:10:40 66° WNW 18:13:53 18° N
Cosmos 1140 Rocket 3.4 18:06:07 10° S 18:11:10 62° ESE 18:12:14 50° ENE
Meteor 2-13 Rocket 4.5 18:05:46 10° SSE 18:11:36 52° E 18:14:11 32° NE
YAOGAN 1 2.4 18:10:30 10° SSE 18:14:50 87° ENE 18:19:12 10° NNW
Meteor 2-9 Rocket 4.2 18:10:27 10° N 18:16:22 79° ENE 18:22:10 10° SSE
NOSS 3-1 (C) 4.0 18:10:08 10° NW 18:17:18 63° NE 18:20:52 36° ESE
Meteor 1-18 Rocket 4.1 18:13:20 10° S 18:19:02 88° ESE 18:23:06 20° NNE
Cosmos 407 Rocket 3.5 18:14:47 10° SSW 18:20:00 82° WNW 18:22:12 36° NNE
Cosmos 1023 Rocket 4.3 18:15:51 10° SSW 18:20:56 76° ESE 18:21:54 58° NE
NOAA 11 4.0 18:17:01 10° SSE 18:22:28 78° ENE 18:27:59 10° NNW
S3M 3.8 18:18:22 10° N 18:24:38 80° E 18:30:47 10° SSE
BREEZE-M DEB (TANK) 4.3 18:24:15 10° W 18:26:42 16° SW 18:27:34 14° SSW
USA 229 DEB 3.8 18:20:00 10° NW 18:27:10 70° NE 18:29:45 43° ESE
USA 229 3.8 18:20:05 10° NW 18:27:15 69° NE 18:29:47 44° ESE
Uosat 12 SS-18 rocket 4.0 18:24:44 10° NW 18:29:39 83° SW 18:29:53 78° S
YAOGAN 6 4.2 18:27:04 10° SSW 18:30:20 34° W 18:33:40 10° NNW
CZ-4C R/B 3.9 18:26:53 10° S 18:28:04 16° SSE 18:28:04 16° SSE
Lacrosse 5 rocket 2.6 18:27:53 10° WNW 18:31:14 32° NNW 18:31:14 32° NNW
NOSS 3-1 (A) 4.0 18:25:25 10° NW 18:32:30 57° NE 18:34:15 48° E
Cosmos 2266 Rocket 4.1 18:28:14 10° SSE 18:33:59 54° ESE 18:33:59 54° ESE
Cosmos 1743 4.4 18:31:08 10° NNW 18:34:39 34° W 18:38:10 10° SSW
Cosmos 1553 Rocket 4.3 18:30:05 10° NNW 18:36:25 69° W 18:42:46 10° S
SL-4 R/B 2.8 18:34:03 10° WNW 18:36:53 47° WNW 18:36:53 47° WNW
Cosmos 2369 Rocket 2.0 18:32:20 10° NNW 18:38:00 87° ENE 18:39:07 60° SSE
Okean 1 4.4 18:36:51 10° SSW 18:40:39 43° WNW 18:41:13 40° NW
SL-16 R/B 2.7 18:38:52 10° SW 18:44:28 58° NW 18:46:25 39° N
CZ-4 R/B 3.1 18:45:02 10° SSW 18:48:31 31° W 18:51:59 10° NNW
Ariane Rocket 4.2 18:55:13 31° NNW 18:55:13 31° NNW 18:57:48 10° NNW
SeaSat 1 4.1 18:55:55 23° NNW 18:55:55 23° NNW 18:57:52 10° NNW
Cosmos 2237 Rocket 4.0 18:49:24 10° W 18:54:07 26° NW 18:56:54 18° N
Meteor 2-4 Rocket 4.0 19:01:51 10° SSW 19:06:55 66° SW 19:06:55 66° SW
Cosmos 1943 Rocket 2.9 19:02:22 10° NW 19:07:47 50° WSW 19:09:30 37° SSW
ATLAS 2AS CENTAUR R/B 4.1 19:04:09 10° WNW 19:11:00 30° N 19:12:00 29° NNE
Cosmos 2344 4.3 19:08:32 10° NW 19:17:59 90° ENE 19:22:29 47° SE
USA 215 3.7 19:23:38 51° NNW 19:23:38 51° NNW 19:29:48 10° W
Lacrosse 5 4.1 19:19:18 10° SSW 19:20:27 17° SSW 19:20:27 17° SSW
